Tracking 17938 objects as of 24-February-2017
HD Live streaming from Space Station
objects crossing your sky now

NSS 10 (AMC-12)

Track NSS 10 (AMC-12) now!
NSS 10 (AMC-12) is classified as:


NORAD ID: 28526
Int'l Code: 2005-003A
Perigee: 35,859.5 km
Apogee: 35,880.7 km
Inclination: 0.0 °
Period: 1,440.0 minutes
Semi major axis: 42241 km
RCS: 8.2875 m2 (large)
Launch date: February 3, 2005
Source: SOCIETE EUROPEENNE DES SATELLITES (SES)
Launch site: TYURATAM MISSILE AND SPACE COMPLEX (TTMTR)

72 C-band transponders.
Your satellite tracking list
Your tracking list is empty





NASA's NSSDC Master Catalog

Two Line Element Set (TLE):
1 28526U 05003A   17055.10395625 -.00000261  00000-0  00000+0 0  9999
2 28526   0.0096 264.9486 0002506  71.5172 177.6776  1.00267792 44222
Source of the keplerian elements: AFSPC